^^
Saratoga-Weather Station Historical Data
Daily Summary for September 23, 2022 Units:  English    Metric   Both
Daily Weekly Monthly Yearly Custom
  High: Low: Average:
Temperature: 65.7 °F 41.7 °F 53.2 °F
Dew Point: 50.4 °F 39.7 °F 45.1 °F
Humidity: 95% 51% 76%
Wind Speed: 4mph 0mph 0.5mph
Wind Gust: 6mph - -
Wind- - SSE
Pressure: 30.1 in 29.9 in -
Precipitation: 0 in    
Historical Graphs
 
 
Tabular Data for September 23, 2022
Time Temperature Dew Point Pressure Wind Wind Speed Wind Gust Humidity Rainfall Rate (Hourly) solar
00:04 47.7 °F 42.8 °F 30.1 in Calm     83% 0 in 0 W/m2
00:09 47.5 °F 42.6 °F 30.1 in Calm     83% 0 in 0 W/m2
00:14 47.1 °F 42.6 °F 30.1 in Calm     84% 0 in 0 W/m2
00:19 47.1 °F 42.6 °F 30.1 in Calm     84% 0 in 0 W/m2
00:24 46.9 °F 42.4 °F 30.1 in Calm     84% 0 in 0 W/m2
00:29 46.8 °F 42.4 °F 30.1 in Calm     85% 0 in 0 W/m2
00:34 46.8 °F 42.4 °F 30.1 in Calm     85% 0 in 0 W/m2
00:39 46.8 °F 42.4 °F 30.1 in Calm     85% 0 in 0 W/m2
00:44 46.6 °F 42.3 °F 30.1 in Calm     85% 0 in 0 W/m2
00:49 46.6 °F 42.3 °F 30.1 in Calm     85% 0 in 0 W/m2
00:54 46.4 °F 42.4 °F 30.1 in Calm     86% 0 in 0 W/m2
00:59 46.4 °F 42.4 °F 30.1 in Calm     86% 0 in 0 W/m2
01:04 46.4 °F 42.4 °F 30.1 in Calm     86% 0 in 0 W/m2
01:09 46.4 °F 42.4 °F 30.1 in Calm     86% 0 in 0 W/m2
01:14 46.4 °F 42.4 °F 30.1 in Calm     86% 0 in 0 W/m2
01:19 46.4 °F 42.4 °F 30.1 in Calm     86% 0 in 0 W/m2
01:24 46.4 °F 42.4 °F 30.1 in Calm     86% 0 in 0 W/m2
01:29 46.4 °F 42.4 °F 30.1 in Calm     86% 0 in 0 W/m2
01:34 46.2 °F 42.6 °F 30.1 in Calm     87% 0 in 0 W/m2
01:39 46.2 °F 42.6 °F 30.1 in Calm     87% 0 in 0 W/m2
01:44 46 °F 42.4 °F 30.1 in Calm     87% 0 in 0 W/m2
01:49 46 °F 42.4 °F 30.1 in Calm     87% 0 in 0 W/m2
01:54 46 °F 42.4 °F 30.1 in Calm     87% 0 in 0 W/m2
01:59 46 °F 42.4 °F 30.1 in Calm     87% 0 in 0 W/m2
02:04 45.9 °F 42.4 °F 30.1 in Calm     88% 0 in 0 W/m2
02:09 45.9 °F 42.3 °F 30.1 in Calm     87% 0 in 0 W/m2
02:14 45.9 °F 42.3 °F 30.1 in Calm     87% 0 in 0 W/m2
02:19 45.7 °F 42.1 °F 30.1 in Calm     87% 0 in 0 W/m2
02:24 45.5 °F 42.1 °F 30.1 in Calm     88% 0 in 0 W/m2
02:29 45.5 °F 42.1 °F 30.1 in Calm     88% 0 in 0 W/m2
02:34 45.3 °F 41.9 °F 30.1 in Calm     88% 0 in 0 W/m2
02:39 45.3 °F 41.9 °F 30.1 in Calm     88% 0 in 0 W/m2
02:44 45.3 °F 41.9 °F 30.1 in Calm     88% 0 in 0 W/m2
02:49 45.3 °F 41.9 °F 30.1 in Calm     88% 0 in 0 W/m2
02:54 45.3 °F 41.9 °F 30.1 in Calm     88% 0 in 0 W/m2
02:59 45.3 °F 41.9 °F 30.1 in Calm     88% 0 in 0 W/m2
03:04 45.1 °F 41.7 °F 30.1 in Calm     88% 0 in 0 W/m2
03:09 45.1 °F 41.7 °F 30.1 in Calm     88% 0 in 0 W/m2
03:14 45 °F 41.5 °F 30.1 in Calm     88% 0 in 0 W/m2
03:19 45 °F 41.5 °F 30.1 in Calm     88% 0 in 0 W/m2
03:24 44.8 °F 41.4 °F 30.1 in Calm     88% 0 in 0 W/m2
03:29 44.8 °F 41.4 °F 30 in Calm     88% 0 in 0 W/m2
03:34 44.6 °F 41.2 °F 30 in Calm     88% 0 in 0 W/m2
03:39 44.4 °F 41.4 °F 30 in Calm     89% 0 in 0 W/m2
03:44 44.4 °F 41.2 °F 30 in Calm     88% 0 in 0 W/m2
03:49 44.2 °F 41.2 °F 30 in Calm     89% 0 in 0 W/m2
03:54 44.1 °F 41 °F 30 in Calm     89% 0 in 0 W/m2
03:59 44.1 °F 41 °F 30 in Calm     89% 0 in 0 W/m2
04:04 43.9 °F 40.8 °F 30 in Calm     89% 0 in 0 W/m2
04:09 43.9 °F 40.8 °F 30 in Calm     89% 0 in 0 W/m2
04:14 43.9 °F 40.8 °F 30 in Calm     89% 0 in 0 W/m2
04:19 43.7 °F 41 °F 30 in Calm     90% 0 in 0 W/m2
04:24 43.5 °F 40.8 °F 30 in Calm     90% 0 in 0 W/m2
04:29 43.5 °F 40.8 °F 30 in Calm     90% 0 in 0 W/m2
04:34 43.3 °F 40.6 °F 30 in Calm     90% 0 in 0 W/m2
04:39 43.3 °F 40.6 °F 30 in Calm     90% 0 in 0 W/m2
04:44 43.3 °F 40.6 °F 30 in Calm     90% 0 in 0 W/m2
04:49 43.3 °F 40.6 °F 30 in Calm     90% 0 in 0 W/m2
04:54 43.2 °F 40.5 °F 30 in Calm     90% 0 in 0 W/m2
04:59 43.2 °F 40.5 °F 30 in Calm     90% 0 in 0 W/m2
05:04 43.2 °F 40.5 °F 30 in Calm     90% 0 in 0 W/m2
05:09 43.2 °F 40.5 °F 30 in Calm     90% 0 in 0 W/m2
05:14 43.2 °F 40.6 °F 30 in Calm     91% 0 in 0 W/m2
05:19 43 °F 40.5 °F 30 in Calm     91% 0 in 0 W/m2
05:25 43 °F 40.5 °F 30 in Calm     91% 0 in 0 W/m2
05:30 43 °F 40.5 °F 30 in Calm     91% 0 in 0 W/m2
05:35 42.8 °F 40.3 °F 30 in Calm     91% 0 in 0 W/m2
05:40 43 °F 40.5 °F 30 in Calm     91% 0 in 0 W/m2
05:45 43 °F 40.5 °F 30 in Calm     91% 0 in 0 W/m2
05:50 42.8 °F 40.3 °F 30 in Calm     91% 0 in 0 W/m2
05:55 42.8 °F 40.3 °F 30 in Calm     91% 0 in 0 W/m2
06:00 42.6 °F 40.5 °F 30 in Calm     92% 0 in 0 W/m2
06:05 42.6 °F 40.5 °F 30 in Calm     92% 0 in 0 W/m2
06:10 42.6 °F 40.5 °F 30 in Calm     92% 0 in 0 W/m2
06:15 42.6 °F 40.5 °F 30 in Calm     92% 0 in 0 W/m2
06:20 42.6 °F 40.5 °F 30 in Calm     92% 0 in 0 W/m2
06:25 42.4 °F 40.3 °F 30 in Calm     92% 0 in 0 W/m2
06:30 42.4 °F 40.3 °F 30 in Calm     92% 0 in 0 W/m2
06:35 42.3 °F 40.1 °F 30 in Calm     92% 0 in 0 W/m2
06:40 42.3 °F 40.1 °F 30 in Calm     92% 0 in 0 W/m2
06:45 42.1 °F 39.9 °F 30 in Calm     92% 0 in 0 W/m2
06:50 42.1 °F 39.9 °F 30 in Calm     92% 0 in 0 W/m2
06:55 42.1 °F 39.9 °F 30 in Calm     92% 0 in 0 W/m2
07:00 41.9 °F 39.7 °F 30 in Calm     92% 0 in 0 W/m2
07:05 41.9 °F 39.7 °F 30 in Calm     92% 0 in 0 W/m2
07:10 41.9 °F 39.7 °F 30 in Calm     92% 0 in 0 W/m2
07:15 41.9 °F 40.1 °F 30 in Calm     93% 0 in 0 W/m2
07:20 41.7 °F 39.9 °F 30 in Calm     93% 0 in 0 W/m2
07:25 41.9 °F 40.1 °F 30 in Calm     93% 0 in 0 W/m2
07:30 41.7 °F 39.9 °F 30 in Calm     93% 0 in 0 W/m2
07:35 41.7 °F 39.9 °F 30 in Calm     93% 0 in 5 W/m2
07:40 41.9 °F 40.1 °F 30 in Calm     93% 0 in 7 W/m2
07:45 41.7 °F 39.9 °F 30 in Calm     93% 0 in 9 W/m2
07:50 41.7 °F 39.9 °F 30 in Calm     93% 0 in 11 W/m2
07:55 41.7 °F 39.9 °F 30 in Calm     93% 0 in 12 W/m2
08:00 41.7 °F 39.9 °F 30 in Calm     93% 0 in 14 W/m2
08:05 41.7 °F 39.9 °F 30 in Calm     93% 0 in 16 W/m2
08:10 41.7 °F 39.9 °F 30 in Calm     93% 0 in 18 W/m2
08:15 41.7 °F 39.9 °F 30 in Calm     93% 0 in 19 W/m2
08:20 42.1 °F 40.5 °F 30 in Calm     94% 0 in 21 W/m2
08:25 42.1 °F 40.5 °F 30 in Calm     94% 0 in 23 W/m2
08:30 42.1 °F 40.5 °F 30 in Calm     94% 0 in 25 W/m2
08:35 42.3 °F 40.6 °F 30 in Calm     94% 0 in 26 W/m2
08:40 42.4 °F 40.8 °F 30 in Calm     94% 0 in 28 W/m2
08:45 42.4 °F 40.8 °F 30 in Calm     94% 0 in 32 W/m2
08:50 42.6 °F 41 °F 30 in Calm     94% 0 in 32 W/m2
08:55 42.8 °F 41.2 °F 30 in Calm     94% 0 in 33 W/m2
09:00 43 °F 41.4 °F 30 in Calm     94% 0 in 37 W/m2
09:05 43.2 °F 41.5 °F 30 in Calm     94% 0 in 88 W/m2
09:10 43.3 °F 41.7 °F 30 in Calm     94% 0 in 148 W/m2
09:15 43.9 °F 42.6 °F 30 in East 2 mph 3 mph 95% 0 in 216 W/m2
09:20 44.4 °F 43.2 °F 30 in ENE 0.9 mph 1 mph 95% 0 in 232 W/m2
09:25 45.1 °F 43.5 °F 30 in Calm   2 mph 94% 0 in 227 W/m2
09:30 45.9 °F 43.9 °F 30 in NE 0.9 mph 2 mph 93% 0 in 171 W/m2
09:35 46.2 °F 44.1 °F 30 in Calm   1 mph 92% 0 in 83 W/m2
09:40 46.9 °F 44.2 °F 30 in Calm     90% 0 in 74 W/m2
09:45 47.7 °F 44.6 °F 30 in NE 0.9 mph 2 mph 89% 0 in 86 W/m2
09:50 48.6 °F 44.8 °F 30 in NE 0.9 mph 2 mph 87% 0 in 151 W/m2
09:55 48.9 °F 45 °F 30 in ENE 2 mph 2 mph 86% 0 in 309 W/m2
10:00 49.6 °F 45 °F 30 in ENE 0.9 mph 1 mph 84% 0 in 306 W/m2
10:05 50.4 °F 45.7 °F 30 in ENE 0.9 mph 1 mph 84% 0 in 308 W/m2
10:10 50.9 °F 45.7 °F 30 in ENE 0.9 mph   82% 0 in 302 W/m2
10:15 51.3 °F 45.7 °F 30 in ENE 0.9 mph   81% 0 in 332 W/m2
10:20 51.3 °F 45.7 °F 30 in Calm     81% 0 in 332 W/m2
10:25 51.3 °F 45.7 °F 30 in Calm     81% 0 in 332 W/m2
10:30 52.3 °F 46 °F 30 in Calm   3 mph 79% 0 in 387 W/m2
10:35 53.1 °F 46.8 °F 30 in East 2.9 mph 3 mph 79% 0 in 364 W/m2
10:40 53.2 °F 46.2 °F 30 in ENE 2.9 mph 4 mph 77% 0 in 369 W/m2
10:45 53.8 °F 46.8 °F 30 in Calm   3 mph 77% 0 in 394 W/m2
10:50 54.1 °F 47.1 °F 30 in East 2 mph 2 mph 77% 0 in 434 W/m2
10:55 54.9 °F 47.5 °F 30 in ESE 0.9 mph 4 mph 76% 0 in 446 W/m2
11:00 55 °F 47.3 °F 30 in ENE 2 mph 3 mph 75% 0 in 429 W/m2
11:05 55.6 °F 47.5 °F 30 in Calm   3 mph 74% 0 in 410 W/m2
11:10 55.9 °F 47.5 °F 30 in SE 2 mph 3 mph 73% 0 in 343 W/m2
11:15 56.5 °F 48 °F 30 in East 0.9 mph 2 mph 73% 0 in 367 W/m2
11:20 56.7 °F 47.7 °F 30 in NE 2 mph 4 mph 72% 0 in 381 W/m2
11:25 56.7 °F 47.7 °F 30 in NE 0.9 mph 3 mph 72% 0 in 294 W/m2
11:30 57 °F 47.7 °F 30 in Calm   4 mph 71% 0 in 216 W/m2
11:35 57.4 °F 48 °F 30 in Calm   2 mph 71% 0 in 207 W/m2
11:40 57.4 °F 47.7 °F 30 in NE 4 mph 4 mph 70% 0 in 197 W/m2
11:45 57.4 °F 48 °F 30 in ENE 2.9 mph 3 mph 71% 0 in 174 W/m2
11:50 57.6 °F 47.8 °F 30 in ENE 2 mph 4 mph 70% 0 in 151 W/m2
11:55 58.3 °F 48.6 °F 30 in ENE 2 mph 3 mph 70% 0 in 137 W/m2
12:00 58.6 °F 48.9 °F 30 in East 2 mph 3 mph 70% 0 in 139 W/m2
12:05 59.4 °F 48.7 °F 30 in East 2.9 mph 3 mph 68% 0 in 165 W/m2
12:10 59.5 °F 48.6 °F 30 in East 2 mph 3 mph 67% 0 in 366 W/m2
12:15 59.7 °F 48.7 °F 30 in NE 2 mph 2 mph 67% 0 in 359 W/m2
12:20 59.9 °F 49.3 °F 30 in Calm   2 mph 68% 0 in 338 W/m2
12:25 60.3 °F 48.9 °F 30 in SE 2 mph 3 mph 66% 0 in 341 W/m2
12:30 60.4 °F 49.1 °F 30 in ENE 0.9 mph 3 mph 66% 0 in 327 W/m2
12:35 60.6 °F 49.3 °F 30 in ENE 2 mph 3 mph 66% 0 in 461 W/m2
12:40 61 °F 49.5 °F 30 in ENE 0.9 mph 1 mph 66% 0 in 489 W/m2
12:45 61 °F 49.1 °F 30 in ESE 0.9 mph 5 mph 65% 0 in 619 W/m2
12:50 61.2 °F 49.3 °F 30 in ESE 0.9 mph 4 mph 65% 0 in 554 W/m2
12:55 61.5 °F 49.6 °F 30 in NE 2 mph 5 mph 65% 0 in 647 W/m2
13:00 61.9 °F 49.6 °F 30 in East 0.9 mph 3 mph 64% 0 in 571 W/m2
13:05 62.4 °F 49.6 °F 30 in East 0.9 mph 3 mph 63% 0 in 729 W/m2
13:10 63.1 °F 49.8 °F 30 in NNE 0.9 mph 3 mph 62% 0 in 603 W/m2
13:16 63.7 °F 50.4 °F 30 in East 0.9 mph 3 mph 62% 0 in 411 W/m2
13:21 64 °F 49.8 °F 30 in ENE 2.9 mph 3 mph 60% 0 in 686 W/m2
13:26 64.6 °F 50.4 °F 30 in Calm   2 mph 60% 0 in 694 W/m2
13:31 64.8 °F 50.2 °F 30 in East 2.9 mph 4 mph 59% 0 in 455 W/m2
13:36 64.8 °F 49.6 °F 30 in NE 2.9 mph 5 mph 58% 0 in 330 W/m2
13:41 64.8 °F 49.6 °F 30 in NE 2 mph 3 mph 58% 0 in 557 W/m2
13:46 64.9 °F 49.3 °F 30 in SE 2.9 mph 5 mph 57% 0 in 580 W/m2
13:51 64.9 °F 49.3 °F 30 in East 2.9 mph 6 mph 57% 0 in 645 W/m2
13:56 64.9 °F 48.9 °F 30 in Calm   2 mph 56% 0 in 366 W/m2
14:01 64.9 °F 49.3 °F 30 in Calm   3 mph 57% 0 in 306 W/m2
14:06 65.1 °F 49.5 °F 30 in ENE 2 mph 4 mph 57% 0 in 684 W/m2
14:11 64.9 °F 48.9 °F 30 in NNW 0.9 mph 3 mph 56% 0 in 680 W/m2
14:16 65.1 °F 49.5 °F 30 in SE 0.9 mph 2 mph 57% 0 in 478 W/m2
14:21 65.7 °F 49.1 °F 30 in Calm   2 mph 55% 0 in 239 W/m2
14:26 65.7 °F 49.1 °F 30 in SE 0.9 mph 2 mph 55% 0 in 204 W/m2
14:31 65.7 °F 49.1 °F 30 in ENE 2 mph 4 mph 55% 0 in 193 W/m2
14:36 65.5 °F 49.3 °F 30 in Calm   1 mph 56% 0 in 195 W/m2
14:41 65.5 °F 49.3 °F 30 in East 2.9 mph 4 mph 56% 0 in 185 W/m2
14:46 65.3 °F 49.3 °F 30 in East 0.9 mph 1 mph 56% 0 in 171 W/m2
14:51 65.1 °F 49.1 °F 30 in East 0.9 mph 2 mph 56% 0 in 172 W/m2
14:56 65.1 °F 49.1 °F 30 in East 2 mph 2 mph 56% 0 in 181 W/m2
15:01 64.9 °F 49.3 °F 30 in Calm   2 mph 57% 0 in 190 W/m2
15:06 65.1 °F 50 °F 30 in Calm   1 mph 58% 0 in 190 W/m2
15:11 65.1 °F 49.5 °F 30 in ENE 0.9 mph 2 mph 57% 0 in 186 W/m2
15:16 65.1 °F 49.1 °F 30 in East 0.9 mph 2 mph 56% 0 in 183 W/m2
15:21 65.1 °F 49.5 °F 30 in East 0.9 mph 2 mph 57% 0 in 176 W/m2
15:26 65.3 °F 47.7 °F 30 in WNW 2 mph 4 mph 53% 0 in 162 W/m2
15:31 65.1 °F 47.5 °F 30 in WSW 0.9 mph 4 mph 53% 0 in 149 W/m2
15:36 65.1 °F 47.1 °F 30 in Calm   1 mph 52% 0 in 146 W/m2
15:41 65.1 °F 47.1 °F 30 in NW 0.9 mph 4 mph 52% 0 in 149 W/m2
15:46 65.1 °F 47.5 °F 30 in NW 0.9 mph 1 mph 53% 0 in 149 W/m2
15:51 64.9 °F 46.9 °F 30 in NW 0.9 mph 3 mph 52% 0 in 146 W/m2
15:56 64.9 °F 47.8 °F 30 in NW 0.9 mph 2 mph 54% 0 in 158 W/m2
16:01 64.9 °F 47.5 °F 30 in NW 0.9 mph 3 mph 53% 0 in 202 W/m2
16:06 64.9 °F 46.9 °F 30 in West 2 mph 5 mph 52% 0 in 207 W/m2
16:11 65.1 °F 47.5 °F 30 in Calm   1 mph 53% 0 in 199 W/m2
16:16 65.1 °F 47.1 °F 30 in NW 2 mph 3 mph 52% 0 in 297 W/m2
16:21 65.3 °F 47.3 °F 30 in WNW 2.9 mph 3 mph 52% 0 in 285 W/m2
16:26 65.5 °F 46.9 °F 30 in NW 0.9 mph 3 mph 51% 0 in 220 W/m2
16:31 65.7 °F 47.5 °F 30 in Calm   1 mph 52% 0 in 302 W/m2
16:36 65.7 °F 47.5 °F 30 in NNW 2.9 mph 4 mph 52% 0 in 250 W/m2
16:41 65.7 °F 47.5 °F 30 in West 2 mph 4 mph 52% 0 in 188 W/m2
16:46 65.7 °F 47.5 °F 30 in West 2 mph 2 mph 52% 0 in 146 W/m2
16:51 65.5 °F 46.9 °F 30 in Calm   3 mph 51% 0 in 148 W/m2
16:56 65.3 °F 47.7 °F 30 in Calm   1 mph 53% 0 in 167 W/m2
17:01 65.1 °F 47.5 °F 30 in West 0.9 mph 2 mph 53% 0 in 174 W/m2
17:06 65.1 °F 47.1 °F 30 in WSW 2.9 mph 5 mph 52% 0 in 162 W/m2
17:11 65.1 °F 47.5 °F 30 in WSW 2 mph 4 mph 53% 0 in 139 W/m2
17:16 64.9 °F 47.5 °F 30 in WNW 2 mph 5 mph 53% 0 in 125 W/m2
17:21 64.8 °F 47.3 °F 30 in WNW 0.9 mph 2 mph 53% 0 in 128 W/m2
17:26 64.8 °F 48.2 °F 30 in WNW 0.9 mph 2 mph 55% 0 in 130 W/m2
17:31 64.8 °F 47.7 °F 30 in WNW 2 mph 3 mph 54% 0 in 109 W/m2
17:36 64.8 °F 47.7 °F 30 in Calm   2 mph 54% 0 in 132 W/m2
17:41 64.8 °F 47.7 °F 30 in Calm   3 mph 54% 0 in 132 W/m2
17:46 64.8 °F 48.7 °F 30 in WNW 2.9 mph 3 mph 56% 0 in 155 W/m2
17:51 64.8 °F 48.7 °F 30 in Calm   1 mph 56% 0 in 146 W/m2
17:56 64.8 °F 48.7 °F 30 in West 2.9 mph 3 mph 56% 0 in 135 W/m2
18:01 64.6 °F 48.9 °F 30 in West 2 mph 4 mph 57% 0 in 128 W/m2
18:06 64.6 °F 47.5 °F 30 in NW 0.9 mph 4 mph 54% 0 in 111 W/m2
18:11 64.4 °F 47.8 °F 30 in West 0.9 mph 2 mph 55% 0 in 86 W/m2
18:16 64.2 °F 48.2 °F 30 in WNW 2 mph 2 mph 56% 0 in 77 W/m2
18:21 64 °F 48.6 °F 30 in West 2 mph 2 mph 57% 0 in 69 W/m2
18:26 63.9 °F 48.7 °F 30 in West 2 mph 2 mph 58% 0 in 58 W/m2
18:31 63.3 °F 48.7 °F 30 in Calm   2 mph 59% 0 in 49 W/m2
18:36 63.1 °F 49.1 °F 30 in West 2 mph 2 mph 60% 0 in 40 W/m2
18:41 63 °F 48.9 °F 30 in Calm   2 mph 60% 0 in 39 W/m2
18:46 62.6 °F 48.9 °F 29.9 in Calm   2 mph 61% 0 in 33 W/m2
18:51 62.2 °F 49.1 °F 29.9 in West 0.9 mph 1 mph 62% 0 in 26 W/m2
18:56 62.1 °F 49.3 °F 29.9 in West 0.9 mph 3 mph 63% 0 in 18 W/m2
19:01 61.7 °F 48.9 °F 29.9 in Calm   2 mph 63% 0 in 14 W/m2
19:06 61.5 °F 48.7 °F 30 in West 0.9 mph 3 mph 63% 0 in 12 W/m2
19:11 61.3 °F 49.1 °F 30 in West 2 mph 2 mph 64% 0 in 11 W/m2
19:16 61.2 °F 48.9 °F 30 in Calm   1 mph 64% 0 in 9 W/m2
19:21 61 °F 49.1 °F 30 in Calm   1 mph 65% 0 in 7 W/m2
19:26 60.6 °F 48.7 °F 30 in Calm     65% 0 in 5 W/m2
19:31 60.4 °F 49.1 °F 29.9 in Calm   1 mph 66% 0 in 0 W/m2
19:36 60.3 °F 48.9 °F 29.9 in Calm     66% 0 in 0 W/m2
19:41 60.1 °F 49.1 °F 29.9 in Calm     67% 0 in 0 W/m2
19:46 59.5 °F 48.6 °F 29.9 in Calm     67% 0 in 0 W/m2
19:51 59.4 °F 48.7 °F 29.9 in Calm     68% 0 in 0 W/m2
19:56 58.8 °F 48.2 °F 30 in WSW 0.9 mph 1 mph 68% 0 in 0 W/m2
20:02 58.6 °F 48.6 °F 29.9 in Calm     69% 0 in 0 W/m2
20:07 58.5 °F 48.4 °F 29.9 in Calm     69% 0 in 0 W/m2
20:12 58.1 °F 48 °F 30 in Calm     69% 0 in 0 W/m2
20:17 57.9 °F 47.8 °F 30 in Calm     69% 0 in 0 W/m2
20:22 57.7 °F 47.7 °F 30 in Calm     69% 0 in 0 W/m2
20:27 57.6 °F 47.8 °F 30 in Calm     70% 0 in 0 W/m2
20:32 57.4 °F 47.7 °F 30 in Calm     70% 0 in 0 W/m2
20:37 57 °F 47.7 °F 30 in Calm     71% 0 in 0 W/m2
20:42 56.8 °F 47.5 °F 30 in Calm     71% 0 in 0 W/m2
20:47 56.8 °F 47.5 °F 29.9 in Calm     71% 0 in 0 W/m2
20:52 56.7 °F 47.7 °F 29.9 in Calm     72% 0 in 0 W/m2
20:57 56.5 °F 47.5 °F 29.9 in Calm     72% 0 in 0 W/m2
21:02 56.3 °F 47.5 °F 29.9 in Calm     72% 0 in 0 W/m2
21:07 56.1 °F 47.7 °F 29.9 in Calm     73% 0 in 0 W/m2
21:12 55.9 °F 47.5 °F 29.9 in Calm     73% 0 in 0 W/m2
21:17 55.8 °F 47.7 °F 29.9 in Calm     74% 0 in 0 W/m2
21:22 55.8 °F 48 °F 29.9 in Calm     75% 0 in 0 W/m2
21:27 55.6 °F 47.8 °F 29.9 in Calm     75% 0 in 0 W/m2
21:32 55.6 °F 47.8 °F 29.9 in Calm     75% 0 in 0 W/m2
21:37 55.4 °F 48 °F 29.9 in Calm     76% 0 in 0 W/m2
21:42 55.2 °F 47.8 °F 29.9 in Calm     76% 0 in 0 W/m2
21:47 55.2 °F 47.8 °F 29.9 in Calm     76% 0 in 0 W/m2
21:52 55.2 °F 47.5 °F 29.9 in Calm     75% 0 in 0 W/m2
21:57 55 °F 47.7 °F 29.9 in Calm   1 mph 76% 0 in 0 W/m2
22:02 55 °F 47.3 °F 29.9 in Calm     75% 0 in 0 W/m2
22:07 54.9 °F 47.5 °F 29.9 in Calm     76% 0 in 0 W/m2
22:12 54.9 °F 47.5 °F 29.9 in Calm     76% 0 in 0 W/m2
22:17 54.7 °F 47.3 °F 29.9 in Calm   1 mph 76% 0 in 0 W/m2
22:22 54.3 °F 46.9 °F 29.9 in Calm     76% 0 in 0 W/m2
22:27 54.1 °F 47.1 °F 29.9 in WSW 0.9 mph 1 mph 77% 0 in 0 W/m2
22:32 54 °F 46.9 °F 29.9 in Calm     77% 0 in 0 W/m2
22:37 53.8 °F 46.8 °F 29.9 in Calm     77% 0 in 0 W/m2
22:42 53.6 °F 46.6 °F 29.9 in Calm     77% 0 in 0 W/m2
22:47 53.4 °F 46.4 °F 29.9 in Calm     77% 0 in 0 W/m2
22:52 53.2 °F 46.6 °F 29.9 in Calm     78% 0 in 0 W/m2
22:57 53.1 °F 46.4 °F 29.9 in Calm     78% 0 in 0 W/m2
23:02 52.9 °F 46.6 °F 29.9 in Calm     79% 0 in 0 W/m2
23:07 52.5 °F 46.2 °F 29.9 in Calm   1 mph 79% 0 in 0 W/m2
23:12 52.2 °F 46.2 °F 29.9 in Calm   1 mph 80% 0 in 0 W/m2
23:17 52 °F 46 °F 29.9 in Calm     80% 0 in 0 W/m2
23:22 52 °F 46 °F 29.9 in Calm     80% 0 in 0 W/m2
23:27 51.6 °F 45.7 °F 29.9 in Calm     80% 0 in 0 W/m2
23:32 51.4 °F 45.5 °F 29.9 in Calm     80% 0 in 0 W/m2
23:37 51.3 °F 45.7 °F 29.9 in Calm     81% 0 in 0 W/m2
23:42 51.1 °F 45.9 °F 29.9 in Calm     82% 0 in 0 W/m2
23:47 50.9 °F 45.7 °F 29.9 in Calm     82% 0 in 0 W/m2
23:52 50.7 °F 45.7 °F 29.9 in Calm     83% 0 in 0 W/m2
23:57 50.5 °F 45.5 °F 29.9 in Calm     83% 0 in 0 W/m2
Juneau County Weather
Compliments of Weather Underground - 4 mb